Mitchell, SD

4:50 PM CDT on August 23, 2017 (GMT -0500)
Mitchell Municipal

Weather History for KMHE - July, 2013

Change the Weather History Date:

Tuesday, July 16, 2013

  Actual Average Record
Temperature  
Mean Temperature 78 °F 75 °F  
Max Temperature 87 °F 87 °F 111 °F (1936)
Min Temperature 69 °F 63 °F 44 °F (1912)
Degree Days  
Heating Degree Days 0 0  
Month to date heating degree days 0 0  
Since 1 June heating degree days 50 35  
Since 1 July heating degree days 0 0  
Cooling Degree Days 13 10  
Month to date cooling degree days 193 158  
Year to date cooling degree days 417 368  
Since 1 June cooling degree days 360 328  
Growing Degree Days 28 (Base 50)    
Moisture  
Dew Point 65 °F    
Average Humidity 65    
Maximum Humidity 84    
Minimum Humidity 45    
Precipitation  
Precipitation 0.00 in 0.10 in 1.95 in (1999)
Month to date precipitation 2.95 1.72  
Year to date precipitation 15.04 12.58  
Snow  
Snow 0.00 in - 0.00 in ()
Month to date snowfall 0.0  
Since 1 June snowfall 0.0  
Since 1 July snowfall 0.0  
Snow Depth 0.00 in    
Sea Level Pressure  
Sea Level Pressure 30.14 in    
Wind  
Wind Speed 11 mph (South)    
Max Wind Speed 22 mph    
Max Gust Speed 28 mph    
Visibility 10 miles    
Events      
T = Trace of Precipitation, MM = Missing Value Source: NWS Daily Summary

Daily Weather History Graph

Daily Weather History Graph

Search for Another Location

Airport or City:

Trip Planner

Search our weather history database for the weather conditions in past years. The results will help you decide how hot, cold, wet, or windy it might be!

Date:

Astronomy

Jul. 16, 2013 Rise Set
Actual Time 6:05 AM CDT 9:10 PM CDT
Civil Twilight 5:30 AM CDT 9:45 PM CDT
Nautical Twilight 4:46 AM CDT 10:29 PM CDT
Astronomical Twilight 3:52 AM CDT 11:22 PM CDT
Moon 2:49 PM CDT (7/16) 12:41 AM CDT (7/16)
Length of Visible Light 16h 14m
Length of Day
15h 05m
First Quarter, 56% of the Moon is Illuminated
Jul 16
First Quarter
Jul 22
Full
Jul 29
Last Quarter
Aug 6
New
Aug 14
First Quarter

Hourly Weather History & Observations

Time (CDT) Temp. Heat Index Dew Point Humidity Pressure Visibility Wind Dir Wind Speed Gust Speed Precip Events Conditions
12:53 AM 72.0 °F - 66.0 °F 81% 30.10 in 10.0 mi SSE 8.1 mph - N/A   Clear
1:53 AM 73.0 °F - 66.9 °F 81% 30.10 in 9.0 mi SSE 9.2 mph - N/A   Clear
2:53 AM 72.0 °F - 66.9 °F 84% 30.10 in 8.0 mi South 8.1 mph - N/A   Clear
3:53 AM 71.1 °F - 66.9 °F 87% 30.10 in 7.0 mi SSE 9.2 mph - N/A   Clear
4:53 AM 71.1 °F - 66.0 °F 84% 30.10 in 9.0 mi South 6.9 mph - N/A   Clear
5:53 AM 70.0 °F - 64.9 °F 84% 30.11 in 8.0 mi South 5.8 mph - N/A   Clear
6:53 AM 71.1 °F - 64.9 °F 81% 30.13 in 10.0 mi SSE 9.2 mph - N/A   Clear
7:53 AM 73.0 °F - 64.9 °F 76% 30.15 in 10.0 mi South 10.4 mph - N/A   Clear
8:53 AM 75.0 °F - 66.0 °F 73% 30.15 in 10.0 mi SSW 8.1 mph - N/A   Clear
9:53 AM 78.1 °F - 66.0 °F 66% 30.16 in 10.0 mi South 8.1 mph - N/A   Clear
10:53 AM 80.1 °F 81.9 °F 64.9 °F 60% 30.17 in 10.0 mi South 13.8 mph - N/A   Clear
11:53 AM 82.9 °F 84.4 °F 64.0 °F 53% 30.17 in 10.0 mi SSW 10.4 mph - N/A   Clear
12:53 PM 84.0 °F 85.4 °F 64.0 °F 51% 30.17 in 10.0 mi South 12.7 mph - N/A   Clear
1:53 PM 86.0 °F 86.3 °F 62.1 °F 44% 30.16 in 10.0 mi South 13.8 mph 23.0 mph N/A   Clear
2:53 PM 86.0 °F 87.3 °F 64.0 °F 48% 30.15 in 10.0 mi South 16.1 mph 23.0 mph N/A   Clear
3:53 PM 87.1 °F 88.3 °F 64.0 °F 46% 30.14 in 10.0 mi SSW 16.1 mph 26.5 mph N/A   Clear
4:53 PM 87.1 °F 88.9 °F 64.9 °F 48% 30.14 in 10.0 mi South 13.8 mph 27.6 mph N/A   Clear
5:53 PM 86.0 °F 87.6 °F 64.9 °F 49% 30.14 in 10.0 mi South 16.1 mph 25.3 mph N/A   Clear
6:53 PM 86.0 °F 87.3 °F 64.0 °F 48% 30.13 in 10.0 mi SSW 17.3 mph - N/A   Clear
7:53 PM 84.0 °F 85.8 °F 64.9 °F 53% 30.14 in 10.0 mi South 8.1 mph - N/A   Clear
8:53 PM 82.0 °F 84.1 °F 66.0 °F 58% 30.14 in 10.0 mi South 6.9 mph - N/A   Clear
9:53 PM 77.0 °F - 66.9 °F 71% 30.15 in 10.0 mi SSE 8.1 mph - N/A   Clear
10:53 PM 75.0 °F - 66.9 °F 76% 30.17 in 10.0 mi SSE 6.9 mph - N/A   Clear
11:53 PM 75.9 °F - 66.9 °F 74% 30.18 in 10.0 mi South 9.2 mph - N/A   Clear